Regional Weather Roundup
Issued by NWS

Home | Current Version | Previous Version | Graphics & Text | Print | Product List | Glossary On
Versions: 1 2 3 4 5 6 7 8 9 10 11 12 13 14 15 16 17 18 19 20 21 22 23 24 25 26 27 28 29 30 31 32 33 34 35 36 37 38 39 40 41 42 43 44 45 46 47 48 49 50
000
ASUS43 KLSX 222007
RWRMO

WEATHER SUMMARY FOR MISSOURI
NATIONAL WEATHER SERVICE SPRINGFIELD MO
300 PM CDT SUN OCT 22 2017

NOTE: "FAIR" INDICATES FEW OR NO CLOUDS BELOW 12,000 FEET WITH NO
       SIGNIFICANT WEATHER AND/OR OBSTRUCTIONS TO VISIBILITY.
       CURRENT SKY AND/OR WEATHER CONDITIONS ARE NOT AVAILABLE FOR
       CHILLICOTHE AND FARMINGTON.

MOZ001>031-035>038-043-044-053-054-222100-
...NORTHERN AND WESTERN MISSOURI...

CITY           SKY/WX    TMP DP  RH WIND       PRES   REMARKS
KANSAS CTY INT MOSUNNY   66  40  38 N8        30.10F
KANSAS C DTWN  PTSUNNY   65  42  43 N10       30.10S
LEE`S SUMMIT   CLOUDY    63  45  51 N7        30.11S
ST JOSEPH      SUNNY     68  38  33 NW8       30.09F
CHILLICOTHE      N/A     61  43  51 N5        30.10F
KIRKSVILLE     CLOUDY    57  50  77 N7        30.08F

$$
MOZ066>068-077>081-088>096-101>105-222100-
...SOUTHWEST MISSOURI...

CITY           SKY/WX    TMP DP  RH WIND       PRES   REMARKS
SPRINGFIELD    LGT RAIN  52  51  97 N9        30.12R
JOPLIN         MOSUNNY   62  47  57 N12       30.14S
BRANSON        LGT RAIN  50  50 100 NW10      30.10F FOG

$$
MOZ032>034-039>042-045>050-055>058-069>072-222100-
...CENTRAL MISSOURI...

CITY           SKY/WX    TMP DP  RH WIND       PRES   REMARKS
COLUMBIA       CLOUDY    53  50  89 NW9       30.10R
JEFFERSON CITY CLOUDY    54  49  83 NW6       30.10R
ROLLA          CLOUDY    51  50  96 N9        30.08S
SEDALIA        PTSUNNY   56  51  84 W6        30.13R
WHITEMAN AFB   PTSUNNY   57  48  71 CALM      30.07R
WARRENSBURG    CLOUDY    59  45  58 NW3       30.11R
OSAGE BEACH    LGT RAIN  52  50  93 N3        30.12R

$$
MOZ051-052-059>065-222100-
...EAST CENTRAL MISSOURI...

CITY           SKY/WX    TMP DP  RH WIND       PRES   REMARKS
ST LOUIS INTL  LGT RAIN  55  54  96 NW16      30.06R FOG
SPIRIT OF STL  CLOUDY    56  52  86 NW9       30.06R
ST CHARLES     CLOUDY    56  51  84 N10       30.06R

$$
MOZ072>076-082>087-097>100-106>115-222100-
...SOUTH CENTRAL AND SOUTHEAST MISSOURI...

CITY           SKY/WX    TMP DP  RH WIND       PRES   REMARKS
CAPE GIRARDEAU CLOUDY    73  63  70 S8G18     29.95F
FARMINGTON     LGT RAIN  56  54  93 NW17G24   30.03R
POPLAR BLUFF   LGT RAIN  70  62  76 W5        29.95S
WEST PLAINS    CLOUDY    54  52  93 N10       30.06S

$$



USA.gov is the U.S. government's official web portal to all federal, state and local government web resources and services.